GW2731 Weather Reports


time (UTC)temp
C
wind
direction
speed
KPH
gust
KPH
rain 1hr
cm
rain 24hr
cm
rain mn
cm
humidity
%
barometer
mb
20260505114132 18 56 8.0 12.9 0.00 0.00 0.00 85 1006.0
20260505113629 18 74 4.8 12.9 0.00 0.00 0.00 85 1005.9
20260505113126 18 109 8.0 12.9 0.00 0.00 0.00 85 1006.0
20260505112622 18 74 4.8 12.9 0.00 0.00 0.00 85 1005.8
20260505112120 18 56 6.4 20.9 0.00 0.00 0.00 85 1005.9
20260505111614 18 144 4.8 11.3 0.00 0.00 0.00 85 1005.8
20260505111110 18 113 3.2 11.3 0.00 0.00 0.00 85 1005.6
20260505110607 18 92 6.4 14.5 0.00 0.00 0.00 85 1005.5
20260505110104 18 93 6.4 16.1 0.00 0.00 0.00 85 1005.4
20260505102039 18 90 4.8 9.7 0.00 0.00 0.00 85 1005.2
20260505101537 18 83 6.4 11.3 0.00 0.00 0.00 85 1004.9
20260505101033 18 105 6.4 9.7 0.00 0.00 0.00 85 1005.0
20260505100531 18 66 4.8 11.3 0.00 0.00 0.00 85 1004.9
20260505100027 18 22 6.4 17.7 0.00 0.00 0.00 85 1004.8
20260505095524 18 98 3.2 14.5 0.00 0.00 0.00 85 1004.8
20260505095020 18 92 4.8 9.7 0.00 0.00 0.00 86 1004.8
20260505094517 18 132 3.2 9.7 0.00 0.00 0.00 86 1004.8
20260505094013 18 85 4.8 6.4 0.00 0.00 0.00 86 1004.9
20260505093509 18 73 1.6 6.4 0.00 0.00 0.00 86 1005.0
20260505093007 18 96 3.2 4.8 0.00 0.00 0.00 87 1004.8
20260505092504 18 90 4.8 9.7 0.00 0.00 0.00 87 1004.9
20260505092002 18 60 4.8 9.7 0.00 0.00 0.00 87 1005.0
20260505091459 18 95 1.6 4.8 0.00 0.00 0.00 87 1005.1
20260505090957 18 132 4.8 9.7 0.00 0.00 0.00 87 1005.0
20260505090455 18 89 4.8 9.7 0.00 0.00 0.00 87 1005.0
20260505085952 18 137 3.2 4.8 0.00 0.00 0.00 86 1005.1
20260505085450 18 109 3.2 9.7 0.00 0.00 0.00 86 1005.1
20260505084948 18 104 3.2 6.4 0.00 0.00 0.00 86 1005.3
20260505084446 18 88 4.8 11.3 0.00 0.00 0.00 85 1005.0
20260505083943 18 74 8.0 12.9 0.00 0.00 0.00 85 1005.1
20260505083441 18 79 3.2 6.4 0.00 0.00 0.00 84 1005.1
20260505082937 19 87 8.0 12.9 0.00 0.00 0.00 84 1005.3
20260505082432 19 87 4.8 6.4 0.00 0.00 0.00 83 1005.3
20260505081930 19 129 6.4 11.3 0.00 0.00 0.00 82 1005.4
20260505081427 20 91 4.8 12.9 0.00 0.00 0.00 82 1005.2
20260505080923 20 100 3.2 16.1 0.00 0.00 0.00 81 1005.2
20260505080419 20 90 4.8 6.4 0.00 0.00 0.00 80 1005.5
20260505075915 20 128 3.2 6.4 0.00 0.00 0.00 80 1005.5
20260505075412 20 99 8.0 14.5 0.00 0.00 0.00 80 1005.4
20260505074909 20 87 6.4 12.9 0.00 0.00 0.00 80 1005.4
20260505074406 20 107 8.0 9.7 0.00 0.00 0.00 80 1006.0
20260505073903 20 67 8.0 12.9 0.00 0.00 0.00 80 1005.9
20260505073401 20 38 4.8 11.3 0.00 0.00 0.00 81 1006.0
20260505072858 20 86 4.8 6.4 0.00 0.00 0.00 81 1005.6
20260505072354 20 84 1.6 9.7 0.00 0.00 0.00 81 1006.0
20260505071850 20 49 4.8 4.8 0.00 0.00 0.00 81 1006.0
20260505071347 20 105 1.6 1.6 0.00 0.00 0.00 81 1006.1
20260505070845 20 54 1.6 4.8 0.00 0.00 0.00 81 1006.0
20260505070341 20 90 0.0 6.4 0.00 0.00 0.00 81 1005.9
20260505065837 20 33 3.2 6.4 0.00 0.00 0.00 81 1006.4
20260505065334 20 73 1.6 4.8 0.00 0.00 0.00 81 1006.1
20260505064831 20 51 1.6 3.2 0.00 0.00 0.00 80 1006.2
20260505064327 20 14 3.2 3.2 0.00 0.00 0.00 80 1006.2
20260505063826 20 0 3.2 6.4 0.00 0.00 0.00 79 1006.0
20260505063321 20 38 3.2 4.8 0.00 0.00 0.00 79 1006.0
20260505062818 20 104 3.2 4.8 0.00 0.00 0.00 79 1006.0
20260505062316 20 136 1.6 6.4 0.00 0.00 0.00 79 1005.3
20260505061812 20 168 4.8 12.9 0.00 0.00 0.00 79 1005.2
20260505061311 20 156 1.6 9.7 0.00 0.00 0.00 79 1004.9
20260505060808 20 144 4.8 9.7 0.00 0.00 0.00 79 1005.1
20260505060305 20 148 4.8 12.9 0.00 0.00 0.00 78 1005.2
20260505055800 20 146 6.4 11.3 0.00 0.00 0.00 78 1005.2
20260505055256 20 179 3.2 14.5 0.00 0.00 0.00 78 1005.5
20260505054754 20 116 11.3 16.1 0.00 0.00 0.00 77 1005.3
20260505054251 20 176 4.8 12.9 0.00 0.00 0.00 77 1005.3
20260505053749 20 181 9.7 16.1 0.00 0.00 0.00 76 1005.6
20260505053246 20 162 6.4 16.1 0.00 0.00 0.00 76 1005.4
20260505052743 20 152 11.3 14.5 0.00 0.00 0.00 75 1005.5
20260505052240 20 149 8.0 20.9 0.00 0.00 0.00 75 1005.8
20260505051737 20 194 9.7 14.5 0.00 0.00 0.00 75 1005.4
20260505051235 20 156 9.7 17.7 0.00 0.00 0.00 74 1005.4
20260505050732 20 161 14.5 20.9 0.00 0.00 0.00 75 1005.4
20260505050231 20 148 6.4 12.9 0.00 0.00 0.00 76 1005.6
20260505041700 21 143 4.8 22.5 0.00 0.00 0.00 71 1005.8
20260505041158 21 193 4.8 20.9 0.00 0.00 0.00 71 1006.0
20260505040655 21 154 6.4 14.5 0.00 0.00 0.00 71 1005.6
20260505040152 20 134 6.4 16.1 0.00 0.00 0.00 72 1006.1
20260505035648 21 170 12.9 22.5 0.00 0.00 0.00 71 1005.8
20260505035144 21 148 9.7 17.7 0.00 0.00 0.00 70 1006.0
20260505034641 21 154 6.4 12.9 0.00 0.00 0.00 70 1006.0
20260505034139 21 188 8.0 16.1 0.00 0.00 0.00 69 1006.5
20260505033635 21 169 9.7 17.7 0.00 0.00 0.00 69 1006.4
20260505033133 21 197 9.7 16.1 0.00 0.00 0.00 69 1006.4
20260505032631 21 148 14.5 17.7 0.00 0.00 0.00 69 1006.4
20260505032127 21 153 6.4 17.7 0.00 0.00 0.00 70 1006.6
20260505031624 21 128 6.4 11.3 0.00 0.00 0.00 70 1006.7
20260505031120 20 123 3.2 12.9 0.00 0.00 0.00 70 1006.8
20260505030618 21 172 8.0 9.7 0.00 0.00 0.00 70 1006.9
20260505030113 21 153 6.4 9.7 0.00 0.00 0.00 69 1007.1
20260505025609 21 91 4.8 9.7 0.00 0.00 0.00 69 1006.9
20260505025108 21 146 6.4 11.3 0.00 0.00 0.00 69 1007.0
20260505024605 21 126 8.0 11.3 0.00 0.00 0.00 68 1007.2
20260505024103 21 171 11.3 12.9 0.00 0.00 0.00 68 1007.2
20260505023600 21 154 4.8 11.3 0.00 0.00 0.00 68 1007.0
20260505023057 21 166 3.2 6.4 0.00 0.00 0.00 68 1006.9
20260505022554 21 167 6.4 14.5 0.00 0.00 0.00 68 1006.9
20260505022051 21 176 4.8 11.3 0.00 0.00 0.00 67 1006.7
20260505021548 21 157 8.0 12.9 0.00 0.00 0.00 66 1006.9
20260505021045 21 159 4.8 14.5 0.00 0.00 0.00 67 1006.8
20260505020544 21 144 8.0 11.3 0.00 0.00 0.00 66 1006.8
20260505020042 22 159 8.0 12.9 0.00 0.00 0.00 66 1006.9
20260505015539 22 150 4.8 14.5 0.00 0.00 0.00 66 1007.0
20260505015035 22 145 6.4 12.9 0.00 0.00 0.00 66 1007.1
20260505014532 22 155 6.4 11.3 0.00 0.00 0.00 66 1006.8
20260505014029 22 163 6.4 16.1 0.00 0.00 0.00 65 1006.9
20260505013527 22 151 6.4 11.3 0.00 0.00 0.00 66 1006.9
20260505013024 22 152 4.8 12.9 0.00 0.00 0.00 66 1006.8
20260505012522 22 138 6.4 12.9 0.00 0.00 0.00 66 1006.8
20260505012019 22 161 4.8 12.9 0.00 0.00 0.00 66 1006.8
20260505011514 22 167 3.2 9.7 0.00 0.00 0.00 66 1006.8
20260505011011 22 172 4.8 12.9 0.00 0.00 0.00 65 1006.7
20260505010507 22 162 4.8 12.9 0.00 0.00 0.00 65 1006.8
20260505010004 22 161 9.7 20.9 0.00 0.00 0.00 64 1006.9
20260505005500 22 161 6.4 14.5 0.00 0.00 0.00 65 1006.7
20260505004958 23 142 3.2 9.7 0.00 0.00 0.00 65 1006.6
20260505004454 23 175 4.8 11.3 0.00 0.00 0.00 64 1006.6
20260505003951 23 172 3.2 11.3 0.00 0.00 0.00 63 1006.7
20260505003448 23 128 6.4 16.1 0.00 0.00 0.00 62 1006.7
20260505002944 23 181 6.4 11.3 0.00 0.00 0.00 62 1006.6
20260505002441 23 171 9.7 14.5 0.00 0.00 0.00 61 1006.7
20260505001939 23 162 8.0 14.5 0.00 0.00 0.00 61 1006.8
20260505001436 23 188 11.3 17.7 0.00 0.00 0.00 61 1006.9
20260505000933 23 185 4.8 12.9 0.00 0.00 0.00 61 1006.9
20260505000432 24 166 11.3 14.5 0.00 0.00 0.00 60 1006.9
20260504235928 24 155 12.9 20.9 0.00 0.00 0.00 60 1006.9
20260504235425 24 195 6.4 16.1 0.00 0.00 0.00 61 1006.9
20260504234921 24 206 6.4 9.7 0.00 0.00 0.00 60 1006.8
20260504234419 24 159 6.4 11.3 0.00 0.00 0.00 60 1006.8
20260504233915 25 177 9.7 12.9 0.00 0.00 0.00 59 1006.9
20260504233411 25 193 6.4 14.5 0.00 0.00 0.00 59 1007.1
20260504232908 25 142 4.8 20.9 0.00 0.00 0.00 59 1007.0
20260504232405 24 143 6.4 14.5 0.00 0.00 0.00 58 1007.0
20260504231902 25 178 6.4 20.9 0.00 0.00 0.00 58 1007.0
20260504231358 25 192 9.7 14.5 0.00 0.00 0.00 58 1007.1
20260504230855 25 193 11.3 24.1 0.00 0.00 0.00 58 1007.1
20260504230352 25 178 9.7 16.1 0.00 0.00 0.00 58 1007.0
20260504225851 25 183 4.8 16.1 0.00 0.00 0.00 58 1007.1
20260504225347 25 193 6.4 16.1 0.00 0.00 0.00 59 1006.9
20260504224844 25 200 6.4 14.5 0.00 0.00 0.00 58 1007.0
20260504224341 25 184 8.0 16.1 0.00 0.00 0.00 58 1007.2
20260504223838 25 193 6.4 20.9 0.00 0.00 0.00 57 1007.0
20260504223333 25 223 14.5 24.1 0.00 0.00 0.00 57 1006.9
20260504222830 25 213 17.7 24.1 0.00 0.00 0.00 56 1007.0
20260504222327 25 243 12.9 20.9 0.00 0.00 0.00 56 1006.8
20260504221826 25 164 9.7 16.1 0.00 0.00 0.00 57 1006.8
20260504221322 25 158 14.5 16.1 0.00 0.00 0.00 56 1006.7
20260504220819 25 147 11.3 14.5 0.00 0.00 0.00 56 1006.9
20260504220316 25 183 17.7 22.5 0.00 0.00 0.00 55 1007.0
20260504215813 25 197 19.3 25.7 0.00 0.00 0.00 56 1006.8
20260504215309 25 185 3.2 17.7 0.00 0.00 0.00 57 1007.3
20260504214805 25 139 9.7 17.7 0.00 0.00 0.00 56 1007.0
20260504214302 25 209 9.7 16.1 0.00 0.00 0.00 56 1007.2
20260504213759 25 165 12.9 22.5 0.00 0.00 0.00 56 1007.2
20260504213255 25 179 9.7 17.7 0.00 0.00 0.00 57 1007.3
20260504212753 25 197 6.4 20.9 0.00 0.00 0.00 57 1007.2
20260504212248 25 245 14.5 20.9 0.00 0.00 0.00 56 1007.4
20260504211746 25 145 8.0 24.1 0.00 0.00 0.00 56 1007.3
20260504211242 25 172 3.2 14.5 0.00 0.00 0.00 56 1007.3
20260504210740 25 197 11.3 25.7 0.00 0.00 0.00 56 1007.3
20260504210237 25 197 12.9 22.5 0.00 0.00 0.00 56 1007.4
20260504205734 25 178 9.7 27.4 0.00 0.00 0.00 56 1007.3
20260504205231 25 151 14.5 25.7 0.00 0.00 0.00 56 1007.3
20260504204729 25 189 8.0 14.5 0.00 0.00 0.00 57 1007.6
20260504204227 25 202 16.1 25.7 0.00 0.00 0.00 56 1007.7
20260504203727 25 130 17.7 24.1 0.00 0.00 0.00 56 1007.8
20260504203223 25 164 12.9 25.7 0.00 0.00 0.00 56 1007.8
20260504202718 25 169 11.3 25.7 0.00 0.00 0.00 56 1008.0
20260504202215 25 193 11.3 24.1 0.00 0.00 0.00 57 1008.0
20260504201712 25 208 17.7 27.4 0.00 0.00 0.00 56 1007.8
20260504201209 25 203 12.9 35.4 0.00 0.00 0.00 57 1007.9
20260504200707 25 216 19.3 25.7 0.00 0.00 0.00 55 1008.4
20260504200203 25 182 19.3 30.6 0.00 0.00 0.00 56 1008.1
20260504195659 25 135 22.5 30.6 0.00 0.00 0.00 56 1008.2
20260504195155 25 166 9.7 29.0 0.00 0.00 0.00 57 1008.3
20260504194653 26 126 11.3 17.7 0.00 0.00 0.00 57 1008.2
20260504194148 26 171 11.3 27.4 0.00 0.00 0.00 56 1008.3
20260504193645 25 196 6.4 25.7 0.00 0.00 0.00 57 1008.3
20260504193143 25 159 9.7 27.4 0.00 0.00 0.00 56 1008.5
20260504192640 25 209 17.7 25.7 0.00 0.00 0.00 56 1008.7
20260504192139 25 151 9.7 25.7 0.00 0.00 0.00 56 1008.5
20260504191637 25 206 11.3 37.0 0.00 0.00 0.00 57 1008.7
20260504191133 26 212 17.7 27.4 0.00 0.00 0.00 55 1008.8
20260504190629 25 191 8.0 17.7 0.00 0.00 0.00 57 1008.8
20260504190126 25 129 8.0 24.1 0.00 0.00 0.00 58 1008.9
20260504185622 25 191 17.7 30.6 0.00 0.00 0.00 57 1008.9
20260504185119 25 203 24.1 35.4 0.00 0.00 0.00 57 1008.9
20260504184614 26 150 12.9 29.0 0.00 0.00 0.00 58 1009.1
20260504184110 26 214 6.4 17.7 0.00 0.00 0.00 58 1009.0
20260504183607 25 164 19.3 25.7 0.00 0.00 0.00 57 1009.1
20260504183105 25 167 9.7 30.6 0.00 0.00 0.00 58 1009.3
20260504182602 26 156 17.7 30.6 0.00 0.00 0.00 57 1009.4
20260504182059 26 171 17.7 30.6 0.00 0.00 0.00 56 1009.3
20260504181556 25 210 11.3 29.0 0.00 0.00 0.00 56 1009.4
20260504181054 25 198 17.7 24.1 0.00 0.00 0.00 55 1009.7
20260504180553 26 165 19.3 27.4 0.00 0.00 0.00 55 1009.5
20260504180052 25 170 9.7 30.6 0.00 0.00 0.00 57 1009.8
20260504175548 25 208 14.5 20.9 0.00 0.00 0.00 56 1009.7
20260504175045 25 150 17.7 29.0 0.00 0.00 0.00 56 1009.9
20260504174543 25 211 14.5 29.0 0.00 0.00 0.00 57 1009.9
20260504174039 25 171 19.3 24.1 0.00 0.00 0.00 55 1010.1
20260504173536 25 202 14.5 27.4 0.00 0.00 0.00 56 1009.9
20260504173034 25 196 11.3 35.4 0.00 0.00 0.00 56 1010.0
20260504172530 25 166 14.5 27.4 0.00 0.00 0.00 56 1010.3
20260504172027 25 198 17.7 25.7 0.00 0.00 0.00 55 1010.1
20260504171524 25 157 19.3 27.4 0.00 0.00 0.00 55 1010.3
20260504171021 25 190 12.9 20.9 0.00 0.00 0.00 55 1010.3
20260504170516 24 146 6.4 29.0 0.00 0.00 0.00 57 1010.1
20260504160437 23 211 12.9 33.8 0.00 0.00 0.00 55 1010.6
20260504150900 22 213 17.7 30.6 0.00 0.00 0.00 55 1011.3
20260504150357 21 225 8.0 22.5 0.00 0.00 0.00 57 1011.3
20260504141327 20 194 11.3 24.1 0.00 0.00 0.00 60 1011.3
20260504140823 20 227 16.1 25.7 0.00 0.00 0.00 60 1011.7
20260504140319 20 195 6.4 11.3 0.00 0.00 0.00 61 1011.6
20260504130748 18 203 8.0 25.7 0.00 0.00 0.00 64 1012.2
20260504130244 17 211 6.4 14.5 0.00 0.00 0.00 66 1012.1
20260504120208 16 205 8.0 16.1 0.00 0.00 0.00 67 1011.8